This is the latest recevied weather packets stored in our database for station/object KI4BIY. If no packets are shown the sender has not sent any weather packets the latest 10 day(s).
| Time | Temp. | Humidity | Pressure | Rain* | Wind** | Luminosity | Snow |
|---|---|---|---|---|---|---|---|
| 1777410763 | 23.89° C | 93% | 1010.8 hPa | 0 mm | - | 0 W/m² | - |
| 1777410462 | 23.89° C | 92% | 1010.1 hPa | 0 mm | - | 0 W/m² | - |
| 1777410162 | 24.44° C | 91% | 1009.7 hPa | 0 mm | - | 0 W/m² | - |
| 1777409857 | 24.44° C | 91% | 1010.3 hPa | 0 mm | - | 0 W/m² | - |
| 1777409553 | 24.44° C | 91% | 1009.7 hPa | 0 mm | - | 0 W/m² | - |
| 1777409248 | 24.44° C | 91% | 1008.8 hPa | 0 mm | - | 1 W/m² | - |
| 1777408945 | 24.44° C | 90% | 1009.3 hPa | 0 mm | - | 0 W/m² | - |
| 1777408641 | 25° C | 90% | 1009.7 hPa | 0 mm | - | 3 W/m² | - |
| 1777408337 | 25° C | 89% | 1009.8 hPa | 0 mm | - | 3 W/m² | - |
| 1777408036 | 25° C | 89% | 1010.3 hPa | 0 mm | - | 5 W/m² | - |
| 1777407733 | 25° C | 88% | 1010.4 hPa | 0 mm | - | 7 W/m² | - |
| 1777407433 | 25.56° C | 88% | 1010.9 hPa | 0 mm | - | 11 W/m² | - |
| 1777407129 | 25.56° C | 88% | 1010.9 hPa | 0 mm | - | 16 W/m² | - |
| 1777406824 | 25.56° C | 87% | 1011.2 hPa | 0 mm | - | 22 W/m² | - |
| 1777406520 | 26.11° C | 86% | 1011.4 hPa | 0 mm | - | 37 W/m² | - |
| 1777406215 | 26.11° C | 85% | 1011.2 hPa | 0 mm | - | 63 W/m² | - |
| 1777405915 | 26.67° C | 83% | 1011.5 hPa | 0 mm | - | 92 W/m² | - |
| 1777405611 | 26.67° C | 83% | 1010.9 hPa | 0 mm | - | 135 W/m² | - |
| 1777405309 | 26.67° C | 83% | 1010.8 hPa | 0 mm | - | 141 W/m² | - |
| 1777405009 | 26.67° C | 83% | 1011.3 hPa | 0 mm | - | 153 W/m² | - |
| 1777404704 | 27.22° C | 83% | 1011.8 hPa | 0 mm | - | 92 W/m² | - |
| 1777404400 | 27.22° C | 82% | 1011.6 hPa | 0 mm | - | 163 W/m² | - |
| 1777404097 | 27.22° C | 82% | 1011.9 hPa | 0 mm | - | 223 W/m² | - |
| 1777403792 | 27.22° C | 83% | 1012 hPa | 0 mm | - | 227 W/m² | - |
| 1777403491 | 27.22° C | 81% | 1012.2 hPa | 0 mm | - | 170 W/m² | - |
* Rain latest hour (hover to see other rain measurements)
** Current wind speed in m/s (hover to see current wind gust speed)